Tiempo cada hora Dacha

Hoy, 13 Mayo, Jueves

Tiempo Temperatura Precipitaciones Viento Presión Humedad
00:00 +9°C° 0.5 mm 3 mps 745 mmHg 95%
01:00 +9°C° 0.3 mm 2 mps 745 mmHg 95%
02:00 +9°C° 0.3 mm 2 mps 745 mmHg 95%
03:00 +9°C° 0 mm 2 mps 745 mmHg 96%
04:00 +9°C° 0.1 mm 2 mps 745 mmHg 95%
05:00 +10°C° 0.1 mm 1 mps 745 mmHg 95%
06:00 +10°C° 0.1 mm 1 mps 745 mmHg 95%
07:00 +12°C° 0 mm 2 mps 745 mmHg 88%
08:00 +14°C° 0 mm 2 mps 745 mmHg 81%
09:00 +16°C° 0 mm 2 mps 745 mmHg 74%
10:00 +17°C° 0 mm 2 mps 745 mmHg 68%
11:00 +19°C° 0 mm 3 mps 745 mmHg 62%
12:00 +20°C° 0 mm 3 mps 745 mmHg 55%
13:00 +21°C° 0 mm 3 mps 745 mmHg 53%
14:00 +22°C° 0 mm 3 mps 745 mmHg 50%
15:00 +24°C° 0 mm 3 mps 745 mmHg 48%
16:00 +22°C° 0 mm 3 mps 745 mmHg 53%
17:00 +21°C° 0 mm 3 mps 745 mmHg 57%
18:00 +21°C° 0 mm 2 mps 745 mmHg 62%
19:00 +19°C° 0 mm 2 mps 745 mmHg 66%
20:00 +18°C° 0 mm 2 mps 745 mmHg 70%
21:00 +17°C° 0 mm 2 mps 745 mmHg 74%
22:00 +16°C° 0 mm 2 mps 745 mmHg 77%
23:00 +16°C° 0 mm 2 mps 745 mmHg 81%

Mañana, 14 Mayo, Viernes

Tiempo Temperatura Precipitaciones Viento Presión Humedad
00:00 +15°C° 0 mm 2 mps 745 mmHg 85%
01:00 +15°C° 0 mm 2 mps 744 mmHg 86%
02:00 +14°C° 0 mm 3 mps 744 mmHg 88%
03:00 +14°C° 0 mm 3 mps 744 mmHg 89%
04:00 +14°C° 0 mm 3 mps 744 mmHg 88%
05:00 +14°C° 0 mm 3 mps 744 mmHg 87%
06:00 +14°C° 0 mm 3 mps 744 mmHg 87%
07:00 +17°C° 0 mm 4 mps 744 mmHg 80%
08:00 +19°C° 0 mm 5 mps 744 mmHg 73%
09:00 +21°C° 0 mm 5 mps 744 mmHg 66%
10:00 +22°C° 0 mm 5 mps 744 mmHg 62%
11:00 +23°C° 0 mm 5 mps 743 mmHg 58%
12:00 +25°C° 0 mm 4 mps 743 mmHg 54%
13:00 +26°C° 0 mm 4 mps 743 mmHg 52%
14:00 +27°C° 0 mm 4 mps 743 mmHg 50%
15:00 +28°C° 0 mm 5 mps 743 mmHg 48%
16:00 +27°C° 0 mm 4 mps 743 mmHg 51%
17:00 +27°C° 0 mm 4 mps 743 mmHg 53%
18:00 +26°C° 0 mm 4 mps 743 mmHg 56%
19:00 +24°C° 0 mm 3 mps 743 mmHg 61%
20:00 +21°C° 0 mm 3 mps 743 mmHg 66%
21:00 +19°C° 0 mm 3 mps 743 mmHg 71%
22:00 +18°C° 0 mm 3 mps 743 mmHg 74%
23:00 +17°C° 0 mm 3 mps 743 mmHg 76%

Pasado mañana, 15 Mayo, Sábado

Tiempo Temperatura Precipitaciones Viento Presión Humedad
00:00 +16°C° 0 mm 2 mps 743 mmHg 79%
01:00 +16°C° 0.1 mm 2 mps 743 mmHg 81%
02:00 +15°C° 0.1 mm 2 mps 744 mmHg 83%
03:00 +15°C° 0.1 mm 1 mps 744 mmHg 84%
04:00 +15°C° 0 mm 1 mps 744 mmHg 84%
05:00 +15°C° 0 mm 1 mps 745 mmHg 83%
06:00 +16°C° 0 mm 1 mps 745 mmHg 82%
07:00 +18°C° 0 mm 1 mps 745 mmHg 73%
08:00 +20°C° 0 mm 1 mps 745 mmHg 65%
09:00 +22°C° 0 mm 1 mps 745 mmHg 56%
10:00 +23°C° 0 mm 2 mps 746 mmHg 52%
11:00 +24°C° 0 mm 2 mps 746 mmHg 48%
12:00 +25°C° 0 mm 2 mps 746 mmHg 44%
13:00 +26°C° 0 mm 2 mps 746 mmHg 43%
14:00 +26°C° 0 mm 2 mps 746 mmHg 42%
15:00 +27°C° 0 mm 1 mps 746 mmHg 41%
16:00 +27°C° 0 mm 1 mps 746 mmHg 44%
17:00 +26°C° 0 mm 1 mps 745 mmHg 47%
18:00 +26°C° 0 mm 1 mps 745 mmHg 49%
19:00 +24°C° 0 mm 1 mps 745 mmHg 54%
20:00 +22°C° 0 mm 1 mps 745 mmHg 58%
21:00 +20°C° 0 mm 1 mps 745 mmHg 62%
22:00 +20°C° 0 mm 1 mps 745 mmHg 63%
23:00 +19°C° 0 mm 2 mps 745 mmHg 65%

16 Mayo, Domingo

Tiempo Temperatura Precipitaciones Viento Presión Humedad
00:00 +18°C° 0 mm 2 mps 745 mmHg 66%
01:00 +18°C° 0 mm 2 mps 745 mmHg 69%
02:00 +17°C° 0 mm 2 mps 745 mmHg 71%
03:00 +17°C° 0 mm 3 mps 745 mmHg 73%
04:00 +17°C° 0 mm 3 mps 745 mmHg 75%
05:00 +17°C° 0 mm 3 mps 745 mmHg 76%
06:00 +17°C° 0 mm 3 mps 745 mmHg 78%
07:00 +19°C° 0 mm 3 mps 744 mmHg 73%
08:00 +21°C° 0 mm 4 mps 744 mmHg 69%
09:00 +23°C° 0 mm 5 mps 744 mmHg 64%
10:00 +25°C° 0 mm 5 mps 744 mmHg 60%
11:00 +26°C° 0 mm 5 mps 744 mmHg 57%
12:00 +27°C° 0 mm 5 mps 744 mmHg 53%
13:00 +28°C° 0 mm 5 mps 743 mmHg 51%
14:00 +28°C° 0 mm 5 mps 743 mmHg 49%
15:00 +29°C° 0 mm 5 mps 743 mmHg 47%
16:00 +28°C° 0 mm 5 mps 743 mmHg 49%
17:00 +27°C° 0 mm 5 mps 742 mmHg 52%
18:00 +26°C° 0 mm 4 mps 742 mmHg 54%
19:00 +25°C° 0 mm 4 mps 742 mmHg 59%
20:00 +22°C° 0 mm 3 mps 742 mmHg 63%
21:00 +20°C° 0 mm 3 mps 741 mmHg 67%
22:00 +20°C° 0 mm 3 mps 741 mmHg 67%
23:00 +19°C° 0 mm 3 mps 741 mmHg 67%

17 Mayo, Lunes

Tiempo Temperatura Precipitaciones Viento Presión Humedad
00:00 +19°C° 0 mm 3 mps 741 mmHg 67%
01:00 +18°C° 0 mm 3 mps 741 mmHg 67%
02:00 +18°C° 0 mm 3 mps 740 mmHg 66%
03:00 +18°C° 0 mm 3 mps 740 mmHg 66%
04:00 +17°C° 0 mm 3 mps 740 mmHg 65%
05:00 +17°C° 0 mm 4 mps 740 mmHg 63%
06:00 +17°C° 0 mm 4 mps 740 mmHg 62%
07:00 +19°C° 0 mm 5 mps 740 mmHg 57%
08:00 +21°C° 0 mm 6 mps 740 mmHg 52%
09:00 +22°C° 0 mm 7 mps 741 mmHg 47%
10:00 +24°C° 0 mm 7 mps 740 mmHg 45%
11:00 +26°C° 0 mm 7 mps 740 mmHg 43%
12:00 +27°C° 0 mm 7 mps 740 mmHg 42%
13:00 +28°C° 0 mm 6 mps 740 mmHg 42%
14:00 +28°C° 0 mm 5 mps 740 mmHg 42%
15:00 +29°C° 0 mm 5 mps 740 mmHg 42%
16:00 +28°C° 0 mm 5 mps 740 mmHg 46%
17:00 +28°C° 0 mm 4 mps 740 mmHg 50%
18:00 +27°C° 0 mm 4 mps 740 mmHg 54%
19:00 +25°C° 0 mm 4 mps 740 mmHg 59%
20:00 +24°C° 0 mm 3 mps 740 mmHg 64%
21:00 +21°C° 0 mm 3 mps 741 mmHg 69%
22:00 +20°C° 0 mm 2 mps 741 mmHg 73%
23:00 +19°C° 0 mm 2 mps 741 mmHg 77%

18 Mayo, Martes

Tiempo Temperatura Precipitaciones Viento Presión Humedad
00:00 +19°C° 0 mm 2 mps 741 mmHg 81%
01:00 +18°C° 0 mm 2 mps 741 mmHg 84%
02:00 +18°C° 0 mm 2 mps 741 mmHg 87%
03:00 +17°C° 0 mm 2 mps 741 mmHg 89%
04:00 +17°C° 0 mm 2 mps 741 mmHg 90%
05:00 +18°C° 0 mm 2 mps 742 mmHg 90%
06:00 +18°C° 0 mm 2 mps 742 mmHg 90%
07:00 +19°C° 0 mm 3 mps 742 mmHg 85%
08:00 +20°C° 0 mm 3 mps 742 mmHg 80%
09:00 +22°C° 0 mm 4 mps 743 mmHg 75%
10:00 +23°C° 0 mm 4 mps 743 mmHg 71%
11:00 +25°C° 0 mm 4 mps 743 mmHg 67%
12:00 +26°C° 0 mm 4 mps 743 mmHg 63%
13:00 +26°C° 0 mm 4 mps 743 mmHg 60%
14:00 +27°C° 0 mm 3 mps 743 mmHg 56%
15:00 +28°C° 0 mm 3 mps 743 mmHg 53%
16:00 +27°C° 0.6 mm 3 mps 743 mmHg 57%
17:00 +26°C° 0.6 mm 2 mps 743 mmHg 62%
18:00 +25°C° 0.6 mm 2 mps 744 mmHg 66%
19:00 +24°C° 0.3 mm 2 mps 744 mmHg 72%
20:00 +23°C° 0.3 mm 2 mps 744 mmHg 77%
21:00 +21°C° 0.3 mm 1 mps 744 mmHg 82%
22:00 +21°C° 0 mm 1 mps 744 mmHg 85%
23:00 +20°C° 0 mm 1 mps 744 mmHg 87%
Mostrar más

Necesitamos Su Consentimiento

Meteoprog y nuestros Proveedores de Servicios pueden almacenar y acceder a sus datos personales como cookies, identificadores de dispositivo u otras tecnologías similares de su dispositivo y procesar dichos datos para personalizar contenido y anuncios, además de ofrecer funciones de redes sociales y analizar el tráfico.

  • Almacenar y/o acceder a información en su dispositivo

    Se puede almacenar o acceder a cookies, identificadores de dispositivo u otra información de su dispositivo para los fines anteriormente indicados.

  • Anuncios y contenido personalizados, medición de anuncios y contenido, percepciones del público, y desarrollo de productos

    Los anuncios y el contenido pueden personalizarse en base a su perfil. Se pueden añadir más datos para personalizar mejor los anuncios y contenidos. Se puede medir el rendimiento de los anuncios y contenidos. Se puede obtener la percepción sobre el público que ha visto los anuncios y contenidos. Dichos datos pueden usarse para desarrollar o mejorar la experiencia del usuario, sistemas y software.

Al hacer clic en ‘Estoy De Acuerdo’ usted permitirá el uso de las cookies, identificadores de dispositivo, balizas web u otras tecnologías similares indicadas. Su configuración puede cambiarse desde el navegador de su dispositivo.

Para ciertos fines, los intereses legítimos pueden ser considerados por encima del consentimiento. Puede leer más sobre ello en nuestra Política de Privacidad y Cookies.